User: anonymous   Login
Location: Caltech
(34.1382°N, 118.1253°W)
Time: 03:40:53
(UTC-07:00)
Language:

Cosmos 1943 Rocket - Orbit

View from above orbital plane
View from above orbital plane
View from above satellite
View from above satellite

Ground track
Ground track

The orbit data is extracted from the following two-line orbital elements,

1 19120U 88039B   17087.52755995 +.00000140 +00000-0 +89476-4 0  9994
2 19120 071.0138 135.3545 0023690 307.9820 051.9165 14.19167323494674
Epoch (UTC): 28 March 2017 12:39:41
Eccentricity: 0.0023690
inclination: 71.0138°
perigee height: 811 km
apogee height: 845 km
right ascension of ascending node: 135.3545°
argument of perigee: 307.9820°
revolutions per day: 14.19167323
mean anomaly at epoch: 51.9165°
orbit number at epoch: 49467

The dashed part of the orbit path shows where the satellite is in the earth's shadow,  

DLR